sat.trackr.live / text

‹ back to catalog

STARLINK-4712

NORAD 53798 · 2022-111AB

PAYLOAD ACTIVE UNKNOWN

§ Identity

Operator
Country
US
Launch date
2022-09-11
Launch site
AFETR
Launch vehicle
Mass (kg)
RCS (m²)

Purposes: comms

External: N2YO · Heavens-Above · Gunter

§ Orbital elements

Epoch: 2026-05-25T03:26:17.532672Z

Period
95.44 min
Inclination
53.2126°
Eccentricity
0.0001392
Mean motion
15.08836070 rev/d
Perigee alt
538.8 km
Apogee alt
540.7 km
Semi-major
6,917.9 km
B*
1.0065e-4
RAAN
290.5085°
Arg perigee
93.3542°
Mean anomaly
266.7609°
Rev number
20,522

§ Raw data

STARLINK-47121 53798U 22111AB  26145.14325848  .00001314  00000+0  10065-3 0  99952 53798  53.2126 290.5085 0001392  93.3542 266.7609 15.08836070205228

JSON: /api/v1/satellites/53798 · /tle

For live sub-satellite position, see the globe view (requires WebGL).

§ Visibility from observer

Set your observer location to see the next 7 days of passes ≥ 10°. The values pass through the URL so the page stays shareable.

No JS? Fill the form by hand. The geolocation button needs JavaScript.